• In Deutschland
  • Länderverzeichnis
  • Für 7 Tage
  • Wassertemperatur
  • Satellitenkarten
  • Wetterkarte
  • Widgets
  • user-avatar
    Anmelden

    Stündliche Wetter Garmisch-Partenkirchen

    Heute, 11 Dezember, Montag

    Zeit Temperatur Niederschläge Wind Luftdruck Luftfeuchtigkeit
    00:00 -2°C° 0 mm 3 m/S 658 mmHg 81%
    01:00 -2°C° 0 mm 3 m/S 658 mmHg 82%
    02:00 -1°C° 0,1 mm 3 m/S 657 mmHg 82%
    03:00 -1°C° 0,1 mm 3 m/S 657 mmHg 82%
    04:00 -1°C° 0,1 mm 3 m/S 657 mmHg 83%
    05:00 -1°C° 0 mm 3 m/S 657 mmHg 83%
    06:00 0°C° 0 mm 3 m/S 656 mmHg 83%
    07:00 +1°C° 0 mm 3 m/S 656 mmHg 82%
    08:00 +1°C° 0 mm 4 m/S 656 mmHg 83%
    09:00 +1°C° 0 mm 4 m/S 656 mmHg 83%
    10:00 +1°C° 0 mm 4 m/S 655 mmHg 84%
    11:00 +3°C° 0 mm 4 m/S 655 mmHg 85%
    12:00 +4°C° 0 mm 4 m/S 654 mmHg 86%
    13:00 +6°C° 0 mm 2 m/S 654 mmHg 89%
    14:00 +4°C° 0 mm 3 m/S 654 mmHg 89%
    15:00 +4°C° 0 mm 3 m/S 654 mmHg 88%
    16:00 +3°C° 0 mm 4 m/S 654 mmHg 88%
    17:00 +3°C° 0 mm 3 m/S 654 mmHg 89%
    18:00 +2°C° 0 mm 3 m/S 654 mmHg 90%
    19:00 +2°C° 0 mm 3 m/S 655 mmHg 90%
    20:00 +1°C° 0,8 mm 3 m/S 655 mmHg 92%
    21:00 +1°C° 0,8 mm 3 m/S 656 mmHg 94%
    22:00 +1°C° 0,8 mm 3 m/S 656 mmHg 95%
    23:00 +1°C° 2 mm 3 m/S 657 mmHg 95%

    Morgen, 12 Dezember, Dienstag

    Zeit Temperatur Niederschläge Wind Luftdruck Luftfeuchtigkeit
    00:00 +1°C° 2 mm 3 m/S 657 mmHg 95%
    01:00 +1°C° 2 mm 3 m/S 658 mmHg 95%
    02:00 +2°C° 1,3 mm 2 m/S 659 mmHg 95%
    03:00 +2°C° 1,3 mm 2 m/S 659 mmHg 95%
    04:00 +1°C° 1,3 mm 2 m/S 660 mmHg 95%
    05:00 +1°C° 0,9 mm 2 m/S 661 mmHg 95%
    06:00 +1°C° 0,9 mm 2 m/S 662 mmHg 95%
    07:00 -1°C° 0,9 mm 3 m/S 663 mmHg 95%
    08:00 -1°C° 0,7 mm 3 m/S 664 mmHg 94%
    09:00 -1°C° 0,7 mm 3 m/S 665 mmHg 94%
    10:00 -2°C° 0,7 mm 3 m/S 666 mmHg 94%
    11:00 -2°C° 0,5 mm 2 m/S 667 mmHg 93%
    12:00 -2°C° 0,5 mm 2 m/S 668 mmHg 92%
    13:00 -2°C° 0,5 mm 2 m/S 668 mmHg 92%
    14:00 -3°C° 0,4 mm 2 m/S 669 mmHg 93%
    15:00 -1°C° 0,4 mm 1 m/S 670 mmHg 93%
    16:00 -2°C° 0,4 mm 1 m/S 670 mmHg 94%
    17:00 -4°C° 0,3 mm 2 m/S 671 mmHg 94%
    18:00 -5°C° 0,3 mm 2 m/S 671 mmHg 94%
    19:00 -5°C° 0,3 mm 2 m/S 672 mmHg 94%
    20:00 -5°C° 0,1 mm 2 m/S 672 mmHg 94%
    21:00 -5°C° 0,1 mm 2 m/S 673 mmHg 93%
    22:00 -5°C° 0,1 mm 2 m/S 674 mmHg 93%
    23:00 -5°C° 0,1 mm 2 m/S 674 mmHg 93%

    übermorgen, 13 Dezember, Mittwoch

    Zeit Temperatur Niederschläge Wind Luftdruck Luftfeuchtigkeit
    00:00 -6°C° 0,1 mm 2 m/S 674 mmHg 93%
    01:00 -6°C° 0,1 mm 2 m/S 674 mmHg 92%
    02:00 -7°C° 0 mm 2 m/S 674 mmHg 92%
    03:00 -8°C° 0 mm 2 m/S 674 mmHg 91%
    04:00 -9°C° 0 mm 2 m/S 674 mmHg 90%
    05:00 -9°C° 0 mm 2 m/S 674 mmHg 88%
    06:00 -10°C° 0 mm 2 m/S 674 mmHg 85%
    07:00 -10°C° 0 mm 2 m/S 674 mmHg 83%
    08:00 -9°C° 0 mm 2 m/S 674 mmHg 80%
    09:00 -7°C° 0 mm 2 m/S 674 mmHg 77%
    10:00 -6°C° 0 mm 2 m/S 674 mmHg 74%
    11:00 -4°C° 0 mm 2 m/S 674 mmHg 73%
    12:00 -2°C° 0 mm 2 m/S 673 mmHg 72%
    13:00 -1°C° 0 mm 2 m/S 672 mmHg 71%
    14:00 -1°C° 0 mm 2 m/S 672 mmHg 74%
    15:00 -2°C° 0 mm 2 m/S 671 mmHg 76%
    16:00 -3°C° 0 mm 2 m/S 671 mmHg 79%
    17:00 -3°C° 0 mm 2 m/S 670 mmHg 79%
    18:00 -3°C° 0 mm 2 m/S 670 mmHg 79%
    19:00 -4°C° 0 mm 3 m/S 670 mmHg 78%
    20:00 -4°C° 0 mm 3 m/S 670 mmHg 77%
    21:00 -4°C° 0 mm 3 m/S 669 mmHg 76%
    22:00 -4°C° 0 mm 3 m/S 669 mmHg 75%
    23:00 -2°C° 0,2 mm 3 m/S 669 mmHg 76%

    14 Dezember, Donnerstag

    Zeit Temperatur Niederschläge Wind Luftdruck Luftfeuchtigkeit
    00:00 -2°C° 0,2 mm 3 m/S 668 mmHg 78%
    01:00 -2°C° 0,2 mm 4 m/S 668 mmHg 79%
    02:00 -2°C° 0,1 mm 4 m/S 668 mmHg 79%
    03:00 -2°C° 0,1 mm 4 m/S 667 mmHg 78%
    04:00 -1°C° 0,1 mm 3 m/S 667 mmHg 78%
    05:00 -1°C° 0 mm 3 m/S 667 mmHg 79%
    06:00 -1°C° 0 mm 3 m/S 667 mmHg 80%
    07:00 -1°C° 0 mm 3 m/S 667 mmHg 81%
    08:00 -1°C° 0,2 mm 3 m/S 668 mmHg 83%
    09:00 0°C° 0,2 mm 3 m/S 668 mmHg 85%
    10:00 +1°C° 0,2 mm 2 m/S 668 mmHg 87%
    11:00 +1°C° 0,3 mm 2 m/S 667 mmHg 89%
    12:00 +2°C° 0,3 mm 2 m/S 667 mmHg 90%
    13:00 +2°C° 0,3 mm 2 m/S 666 mmHg 91%
    14:00 +2°C° 0,1 mm 2 m/S 666 mmHg 91%
    15:00 +1°C° 0,1 mm 2 m/S 665 mmHg 91%
    16:00 +1°C° 0,1 mm 2 m/S 664 mmHg 92%
    17:00 -1°C° 0,2 mm 2 m/S 664 mmHg 91%
    18:00 -1°C° 0,2 mm 2 m/S 663 mmHg 90%
    19:00 -1°C° 0,2 mm 3 m/S 663 mmHg 89%
    20:00 -1°C° 0,1 mm 3 m/S 662 mmHg 86%
    21:00 -1°C° 0,1 mm 3 m/S 662 mmHg 83%
    22:00 -1°C° 0,1 mm 3 m/S 662 mmHg 80%
    23:00 -1°C° 1,2 mm 3 m/S 662 mmHg 85%

    15 Dezember, Freitag

    Zeit Temperatur Niederschläge Wind Luftdruck Luftfeuchtigkeit
    00:00 -1°C° 1,2 mm 3 m/S 662 mmHg 89%
    01:00 -1°C° 1,2 mm 3 m/S 662 mmHg 93%
    02:00 -1°C° 1,3 mm 3 m/S 663 mmHg 94%
    03:00 -1°C° 1,3 mm 2 m/S 663 mmHg 94%
    04:00 -2°C° 1,3 mm 2 m/S 663 mmHg 95%
    05:00 -2°C° 0,4 mm 2 m/S 663 mmHg 95%
    06:00 -2°C° 0,4 mm 2 m/S 663 mmHg 95%
    07:00 -1°C° 0,4 mm 1 m/S 663 mmHg 95%
    08:00 0°C° 0,3 mm 1 m/S 663 mmHg 94%
    09:00 0°C° 0,3 mm 1 m/S 662 mmHg 93%
    10:00 0°C° 0,3 mm 1 m/S 662 mmHg 93%
    11:00 +1°C° 0,4 mm 1 m/S 662 mmHg 93%
    12:00 +1°C° 0,4 mm 1 m/S 661 mmHg 93%
    13:00 +1°C° 0,4 mm 1 m/S 661 mmHg 92%
    14:00 +1°C° 0,4 mm 1 m/S 661 mmHg 93%
    15:00 0°C° 0,4 mm 1 m/S 660 mmHg 94%
    16:00 0°C° 0,4 mm 1 m/S 660 mmHg 95%
    17:00 -3°C° 0,3 mm 2 m/S 661 mmHg 94%
    18:00 -3°C° 0,3 mm 2 m/S 661 mmHg 94%
    19:00 -4°C° 0,3 mm 2 m/S 661 mmHg 94%
    20:00 -4°C° 0,1 mm 2 m/S 661 mmHg 92%
    21:00 -4°C° 0,1 mm 2 m/S 661 mmHg 91%
    22:00 -5°C° 0,1 mm 2 m/S 662 mmHg 90%
    23:00 -5°C° 0,2 mm 2 m/S 662 mmHg 90%

    16 Dezember, Samstag

    Zeit Temperatur Niederschläge Wind Luftdruck Luftfeuchtigkeit
    00:00 -5°C° 0,2 mm 2 m/S 662 mmHg 90%
    01:00 -5°C° 0,2 mm 2 m/S 663 mmHg 90%
    02:00 -5°C° 0,1 mm 2 m/S 663 mmHg 90%
    03:00 -6°C° 0,1 mm 2 m/S 663 mmHg 90%
    04:00 -6°C° 0,1 mm 2 m/S 663 mmHg 90%
    05:00 -6°C° 0,1 mm 2 m/S 663 mmHg 90%
    06:00 -6°C° 0,1 mm 2 m/S 664 mmHg 91%
    07:00 -7°C° 0,1 mm 2 m/S 664 mmHg 91%
    08:00 -6°C° 0,2 mm 2 m/S 665 mmHg 91%
    09:00 -5°C° 0,2 mm 2 m/S 665 mmHg 90%
    10:00 -4°C° 0,2 mm 2 m/S 666 mmHg 90%
    11:00 -4°C° 0,4 mm 2 m/S 666 mmHg 90%
    12:00 -5°C° 0,4 mm 3 m/S 667 mmHg 90%
    13:00 -4°C° 0,4 mm 3 m/S 667 mmHg 91%
    14:00 -5°C° 0,5 mm 3 m/S 667 mmHg 92%
    15:00 -5°C° 0,5 mm 3 m/S 668 mmHg 93%
    16:00 -4°C° 0,5 mm 2 m/S 668 mmHg 94%
    17:00 -5°C° 0,2 mm 2 m/S 669 mmHg 94%
    18:00 -5°C° 0,2 mm 2 m/S 670 mmHg 95%
    19:00 -5°C° 0,2 mm 2 m/S 670 mmHg 95%
    20:00 -6°C° 0,1 mm 2 m/S 670 mmHg 94%
    21:00 -6°C° 0,1 mm 2 m/S 671 mmHg 93%
    22:00 -7°C° 0,1 mm 2 m/S 671 mmHg 93%
    23:00 -7°C° 0,1 mm 2 m/S 671 mmHg 92%
    Mehr zeigen